FALCON 9 DEB (53812 NORAD) Tracking and Keplerian Element Data

This shows tracking and keplerian element data for the satellite.

Feedback or suggestion? Click here.




ElementValue
Catalog53812
NameFALCON 9 DEB
Epoch Orbit857
Epoch Day307.96677404
Epoch Year2022
RAAN354.2701
Inclination53.1938
Eccentricity0.001318
Argument of Perigee36.8253
Mean Anonmoly323.3683
Mean Motion16.05139951
Decay Rate0.00750826
L11 53812U 22111AR 22307.96677404 .00750826 29223-3 10494-2 0 9992
L22 53812 53.1938 354.2701 0013180 36.8253 323.3683 16.05139951 8570



Live tracking and technical data element details for FALCON 9 DEB (NORAD 53812). FALCON 9 DEB can be tracked NOW for your location showing map with azimuth and elevation plus other details from your city location.







IsCatalogInMostPopularTable: catalog: 53812, numindb: -1

Insert: records affected: 1


GetName: 53812 FALCON 9 DEB

Hit Count: inserted at: Thu, 08 Dec 2022 09:26:55 GMT